Regional Weather Roundup
Issued by NWS

Home | Current Version | Previous Version | Graphics & Text | Print | Product List | Glossary On
Versions: 1 2 3 4 5 6 7 8 9 10 11 12 13 14 15 16 17 18 19 20 21 22 23 24 25 26 27 28 29 30 31 32 33 34 35 36 37 38 39 40 41 42 43 44 45 46 47 48 49 50
547
ASUS45 KBOI 241010
RWRID

IDAHO REGIONAL WEATHER ROUNDUP
NATIONAL WEATHER SERVICE BOISE ID
400 AM MDT MON APR 24 2017

NOTE: "FAIR" INDICATES FEW OR NO CLOUDS BELOW 12000 FEET
WITH NO SIGNIFICANT WEATHER AND/OR OBSTRUCTIONS TO VISIBILITY

IDZ012-014-241100-
SOUTHWEST IDAHO


CITY           SKY/WX    TMP DP  RH WIND       PRES   REMARKS
BOISE          FAIR      48  39  71 SE6       29.71F
CALDWELL       MOCLDY    46  41  82 W8        29.72F
MOUNTAIN HOME  FAIR      48  48 100 CALM      29.72S
$$

IDZ016-017-241100-
SOUTHCENTRAL IDAHO


CITY           SKY/WX    TMP DP  RH WIND       PRES   REMARKS
BURLEY         MOCLDY    45  37  73 S3        29.73S
JEROME         CLOUDY    47  38  71 NW3       29.74F
TWIN FALLS     MOCLDY    43  37  79 W7        29.75S
$$

IDZ019>023-241100-
SOUTHEAST IDAHO


CITY           SKY/WX    TMP DP  RH WIND       PRES   REMARKS
IDAHO FALLS    CLOUDY    46  37  71 SW12      29.74S
POCATELLO      CLOUDY    46  36  68 SW6       29.74F
REXBURG        CLOUDY    44  36  73 SW7       29.72S
$$

IDZ006-010-011-018-031-032-241100-
CENTRAL IDAHO MOUNTAINS


CITY           SKY/WX    TMP DP  RH WIND       PRES   REMARKS
MCCALL         MOCLDY    35  32  88 CALM      29.70F
HAILEY         CLOUDY    39  34  81 CALM      29.76S
STANLEY          N/A     34  33  96 CALM      29.76F
SALMON         CLOUDY    41  36  81 S6        29.74S
CHALLIS        CLOUDY    41  36  82 NE5       29.74S
$$

IDZ002-004-006-007-026-241100-
NORTHERN IDAHO


CITY           SKY/WX    TMP DP  RH WIND       PRES   REMARKS
LEWISTON       LGT RAIN  47  45  93 E6        29.76F
LOWELL           N/A     45  43  93 CALM      29.79F
COEUR D`ALENE  CLOUDY    44  40  85 S9        29.72F
MULLAN PASS    SNOW      30  30 100 SW3       29.69F VSB 1/2
$$




USA.gov is the U.S. government's official web portal to all federal, state and local government web resources and services.